Location: Daerah Kuala Lumpur
(3.1167°N, 101.6833°E)
Time: 14:34:19
(UTC+00:00)

ARIANE 6 FM1 Upper Stage - Pass Details

Date: 22 February 2026
Orbit: 523 x 607 km, 62.0° (Epoch: 14 March)

Event Time Altitude Azimuth Distance (km) Brightness Sun altitude
Rises 13:02:13 0° 329° (NNW) 2,670 6.4 -24.0°
Reaches altitude 10° 13:04:24 10° 325° (NW) 1,793 5.5 -24.6°
Maximum altitude 13:08:22 59° 246° (WSW) 637 3.1 -25.6°
Enters shadow 13:08:29 59° 237° (WSW) 639 3.1 -25.6°
